星链-11182 (STARLINK-11182)

导读

STARLINK-11182是美国太空探索技术公司(SpaceX)于2024年8月10日发射的星链(Starlink)低轨互联网星座卫星,归属美国。该卫星承载星链项目全球高速互联网覆盖目标,运行于近地轨道,为全球用户提供宽带网络服务,进一步扩充了星链星座的在轨卫星规模,推进星链星座组网进程。

Basic Information
目录编号:
60399
目录名称:
STARLINK-11182
国际标识:
2024-141B
轨道中心:
EARTH
卫星名称:
星链-11182 (STARLINK-11182)
卫星全名:
星链-11182 (STARLINK-11182)
卫星状态:
在轨 (已飞行717 天)
发射日期:
2024-08-10 UTC
国别 :
美国 (US)
星等 :
--
Orbit Information
数据来源 国际轨道数据
星历时间: 2026-07-27T12:19:59+0800
20小时前
查看轨道信息
半长轴: 6737.893km
偏心率: 0.0000938
轨道倾角: 53.158°
近地点辐角 145.210°
升交点赤经 118.469°
平近点角 214.898°
近地点: 359.123km
远地点: 360.389km
周期: 91.737分钟
每日圈数: 15.696998
Detailed Information
卫星平台:
Starlink v2.0 mini
运营商:
太空探索技术公司
运营商所在国:
美国
制造商(研发单位):
太空探索技术公司
制造商所在国:
美国
使用方式:
暂无
Satellite Introduction
星链(Starlink)计划是由太空探索技术公司(SpaceX)提出的一个巨型低轨卫星互联网星座项目,计划在2019年至2024年间在太空搭建由约1.2万颗卫星组成的“星链”网络,其中1584颗将部署在地球上空550千米处的近地轨道,并从2020年开始工作。该卫星仍在工作。
2D Orbit Map
3D Orbit Map
Orbit Altitude Analysis Chart
Orbit Inclination Analysis Chart
Orbit Comprehensive Analysis Chart
View Comprehensive Chart